Notices

What's New in latest Release from April 7th, 2021:

- Updated Glossary, including Speed of Maximum Gust, and Total Hourly Precipitation

- Updated national and regional climate services offices contacts and prices information

- Addition of station inventory lists for 1981-2010, 1971-2000, and 1961-1990 Normals.

If you haven't already, please take our survey and provide feedback about our website: https://eccc.sondage-survey.ca/f/LanguageSelection.aspx?s=442ca660-fcf1-47c0-95a9-59707d6fd709

Hourly Data Report for August 28, 2004

SHERBROOKE A
QUEBEC

45°26'00.000" N
71°41'00.000" W
241.40 m
7028124
71610
YSC

Download Data

Hourly Data (August 2004)
Hourly Data Report for August 28, 2004
TIME
LST
Temp Definition
°C
Dew Point Definition
°C
Rel Hum Definition
%
Precip. Amount Definition
mm

Wind Dir Definition
10's deg

Wind Spd Definition
km/h
Visibility Definition
km
Stn Press Definition
kPa
Hmdx Definition


Wind Chill Definition


Weather Definition


00:00 20.5 18.4 88   24 4 5.6 98.37 27    
01:00 20.8 18.7 88   25 4 5.6 98.35 27    
02:00 20.6 18.8 89   25 4 5.6 98.32 27    
03:00 20.4 18.9 91   21 6 4.8 98.28 27    
04:00 21.1 19.4 90   22 6 4.8 98.25 28    
05:00 20.8 19.3 91   25 4 3.7 98.28 28    
06:00 21.3 20.1 93   25 7 3.7 98.35 29    
07:00 22.3 20.7 91   25 6 12.9 98.37 30   Mainly Clear
08:00 23.8 20.5 82   27 19 16.1 98.41 32   Mostly Cloudy
09:00 24.6 19.9 75   27 13 16.1 98.40 32   Mostly Cloudy
10:00 25.0 19.6 72   26 19 19.3 98.41 32   Mostly Cloudy
11:00 25.4 19.0 68   27 20 19.3 98.40 32   Mostly Cloudy
12:00 26.5 18.6 62   25 19 24.1 98.38 33   Mostly Cloudy
13:00 27.1 18.6 60   27 20 24.1 98.37 34   Mostly Cloudy
14:00 27.1 18.7 60   26 17 24.1 98.36 34   Mostly Cloudy
15:00 27.3 18.1 57   27 20 24.1 98.35 33   Mostly Cloudy
16:00 26.9 18.4 60   29 19 24.1 98.34 33   Mostly Cloudy
17:00 26.0 17.4 59   30 15 15.0 98.36 32    
18:00 24.4 17.6 66     0 15.0 98.36 30    
19:00 19.9 17.3 85     0 15.0 98.42      
20:00 18.8 16.4 86     0 15.0 98.47      
21:00 17.5 16.1 91   16 4 15.0 98.47      
22:00 17.7 16.5 93   12 4 9.7 98.49      
23:00 17.8 16.6 93   9 6 9.7 98.52      

Notes on Data Quality.

Legend

  • E = Estimated
  • M = Missing
  • NA = Not Available*
  • [empty] = Indicates an unobserved value
Date modified: